This is the latest recevied weather packets stored in our database for station/object KI4NG. If no packets are shown the sender has not sent any weather packets the latest 10 day(s).
| Time | Temp. | Humidity | Pressure | Rain* | Wind** | Luminosity | Snow |
|---|---|---|---|---|---|---|---|
| 1777420666 | 19.44° C | 93% | 1017 hPa | 0 mm | - | 3 W/m² | - |
| 1777420363 | 19.44° C | 93% | 1017 hPa | 0 mm | - | 7 W/m² | - |
| 1777420058 | 19.44° C | 93% | 1016.8 hPa | 0 mm | - | 10 W/m² | - |
| 1777419756 | 19.44° C | 93% | 1016.8 hPa | 0 mm | - | 12 W/m² | - |
| 1777419453 | 19.44° C | 92% | 1016.8 hPa | 0 mm | - | 15 W/m² | - |
| 1777419152 | 19.44° C | 92% | 1016.8 hPa | 0 mm | - | 19 W/m² | - |
| 1777418847 | 20° C | 92% | 1016.7 hPa | 0 mm | - | 29 W/m² | - |
| 1777418543 | 20° C | 91% | 1016.1 hPa | 0 mm | - | 36 W/m² | - |
| 1777418240 | 20° C | 90% | 1015.9 hPa | 0 mm | - | 40 W/m² | - |
| 1777417935 | 20° C | 91% | 1015.3 hPa | 0 mm | - | 47 W/m² | - |
| 1777417632 | 20° C | 91% | 1015.1 hPa | 0 mm | - | 53 W/m² | - |
| 1777417327 | 20° C | 90% | 1015.2 hPa | 0 mm | - | 59 W/m² | - |
| 1777417024 | 20° C | 91% | 1015.3 hPa | 0 mm | - | 63 W/m² | - |
| 1777416719 | 20.56° C | 89% | 1015.6 hPa | 0 mm | - | 72 W/m² | - |
| 1777416415 | 20.56° C | 88% | 1015.8 hPa | 0 mm | - | 81 W/m² | - |
| 1777416110 | 20.56° C | 89% | 1015.8 hPa | 0 mm | - | 89 W/m² | - |
| 1777415804 | 20.56° C | 89% | 1015.8 hPa | 0 mm | - | 101 W/m² | - |
| 1777415501 | 20.56° C | 88% | 1015.9 hPa | 0 mm | - | 110 W/m² | - |
| 1777415197 | 21.11° C | 86% | 1016.2 hPa | 0 mm | - | 120 W/m² | - |
| 1777414892 | 21.11° C | 86% | 1016.4 hPa | 0 mm | - | 126 W/m² | - |
| 1777414591 | 21.11° C | 85% | 1016.2 hPa | 0 mm | - | 138 W/m² | - |
| 1777414286 | 21.67° C | 85% | 1016.1 hPa | 0 mm | - | 166 W/m² | - |
| 1777413981 | 21.67° C | 83% | 1016 hPa | 0 mm | - | 181 W/m² | - |
| 1777413677 | 22.22° C | 83% | 1016.1 hPa | 0 mm | - | 206 W/m² | - |
| 1777413373 | 22.22° C | 82% | 1015.8 hPa | 0 mm | - | 219 W/m² | - |
* Rain latest hour (hover to see other rain measurements)
** Current wind speed in m/s (hover to see current wind gust speed)